OBJECT A, 63982

Orbit data source: Space-Track

You're viewing an Uncataloged Satellite

Recently launched and/or uncataloged satellites may have evolving metadata. Metadata may include but not limited to: Owner, Maufacturer, Bus, Motor, and Mission.

OBJECT A, 63982 is a Chinese satellite in SSO that was launched on Wed, 14 May 2025 UTC via a CHANG ZHENG 2D launch vehicle from the Jiuquan Satellite Launch Center, China (JSC). Unknown objects in Earth's orbit typically refer to objects detected orbiting the Earth but have not yet been identified or cataloged. These objects could be anything from previously untracked satellites, spent rocket stages, debris from satellite collisions, or even natural meteoroids temporarily captured by Earth's gravity.

Loading next visibility...
Identifier
63982, 2025-100A
Orbit
SSO
Country
Flag of CNCN / PRC
Related business
None
Manufacturer
Unknown
Mission
Operational Commercial Technology
Bus & Motor
Unknown
Mass
Unknown
Launch date (UTC)
2025-05-14 (1 year ago)
Launch vehicle
CHANG ZHENG 2D
Launch site
Jiuquan Satellite Launch Center, China (JSC)
Object type
Unknown
Shape & HBR
Box + 2 Pan, 0.8 m
Radar Cross Section
0.195 m², Large (>1 m²)

Expand to show TLE details & history
Last TLE update: 11 hours ago

TLE from 11 hours ago
0 OBJECT A
1 63982U 25100A   26206.62508920  .00008683  00000-0  39201-3 0  9997
2 63982  97.3660 278.5445 0027210 226.4082 133.4896 15.20886245 66481
Epoch: 2026-07-25T15:00Z
TLE epoch observation values (Epoch: 2026-07-25T15:00:07.706Z)
Latitude
-0°
Longitude
110.1777°
Altitude
519.175 km
Speed
7.597 km/s
True Right ascension
18h 34m 10s
True Declination
0° 00' 00"
Sunlit
Object was in full shadow at epoch
Visualization orbit readout
Latitude
Unknown
Longitude
Unknown
Altitude
Unknown
Speed
Unknown
Apparent Right ascension
Unknown
Apparent Declination
Unknown
Sunlit
N/A
Visualization observer readout
Local Sidereal Time
15:23:27
Azimuth
Unknown
Elevation
Unknown
Doppler factor
Unknown
Orbital elements
Apogee altitude
518.845 km
Perigee altitude
481.413 km
Semi-major axis
6,878.266 km
Eccentricity
0.00272
Inclination
97.366°
RAAN
278.5445°
Arg. of periapsis
226.4082°
True anomaly
133.71528°
Mean anomaly
133.4896°
Eccentric anomaly
133.6025°
Mean motion
3.80474 °/min
Orbital period
94.62 mins
BSTAR
0.00039201
Loading maneuver chart data...
Computing Atmospheric mass density...
Loading historical data...
Loading historical data...
Loading historical data...
Loading historical data...
Loading historical data...
Loading historical data...
Loading historical data...

Documentation

Showing up to 5 results
|